Powrót do katalogu

FENGYUN 1C DEB

AktywnyPO
NORAD 31097·DEBRIS·🇨🇳 China

Wystrzelony May 10, 1999 z Taiyuan Satellite Launch Center

Loading…

Następne Przeloty (najbliższe 24 godziny)

TLE

ŚwieżeSource: Space-Track

Epoka: Sep 14, 2026, 03:45 UTC

1 31097U 99025BGT 26257.15652441  .00005630  00000-0  14047-2 0  9997
2 31097  98.8706  39.0804 0015584 158.9225 254.2511 14.51941799 10280

Śledź FENGYUN 1C DEB w czasie rzeczywistym z AllMySat

Download on the App Store